LUCAS (JDRS-1)

Last updated on Mon Sep 07 2026 00:03:01 GMT+0000 (Coordinated Universal Time)

1 47202U 20089A 26249.63041036 -.00000252 00000+0 00000+0 0 9998 2 47202 0.0515 280.3300 0001971 267.8040 115.3303 1.00272057 21237
UTC large
Height (km)
Speed (km/s)
/
Latitude / Longitude
Inclination (degrees)
Orbital Period (minutes)
Azimuth
Elevation
Range (km)
Doppler Factor

Next 0 passes for location: London (51.5072 / 0.1276)

No passes found over London.
LUCAS (JDRS-1)